Branson, MO

3:46 PM CDT on June 27, 2017 (GMT -0500)
Branson

Weather History for KBBG - March, 2013

Change the Weather History Date:

Saturday, March 30, 2013

  Actual Average (KHRO) Record (KHRO)
Temperature  
Mean Temperature 58 °F -  
Max Temperature 69 °F 61 °F 84 °F (1963)
Min Temperature 48 °F 41 °F 17 °F (1964)
Degree Days  
Heating Degree Days 6    
Growing Degree Days 8 (Base 50)    
Moisture  
Dew Point 49 °F    
Average Humidity 83    
Maximum Humidity 100    
Minimum Humidity 49    
Precipitation  
Precipitation 0.16 in - - ()
Sea Level Pressure  
Sea Level Pressure 30.03 in    
Wind  
Wind Speed 9 mph (SE)    
Max Wind Speed 21 mph    
Max Gust Speed 29 mph    
Visibility 9 miles    
Events Rain , Thunderstorm    
Averages and records for this station are not official NWS values.
T = Trace of Precipitation, MM = Missing Value Source: NWS Daily Summary

Daily Weather History Graph

Daily Weather History Graph

Search for Another Location

Airport or City:

Trip Planner

Search our weather history database for the weather conditions in past years. The results will help you decide how hot, cold, wet, or windy it might be!

Date:

Astronomy

Mar. 30, 2013 Rise Set
Actual Time 7:01 AM CDT 7:33 PM CDT
Civil Twilight 6:35 AM CDT 7:59 PM CDT
Nautical Twilight 6:04 AM CDT 8:30 PM CDT
Astronomical Twilight 5:33 AM CDT 9:01 PM CDT
Moon 11:33 PM CDT (3/30) 9:03 AM CDT (3/30)
Length of Visible Light 13h 24m
Length of Day
12h 32m
Waning Gibbous, 86% of the Moon is Illuminated
Mar 30
Waning Gibbous
Apr 2
Last Quarter
Apr 10
New
Apr 18
First Quarter
Apr 25
Full

Hourly Weather History & Observations

Time (CDT) Temp. Dew Point Humidity Pressure Visibility Wind Dir Wind Speed Gust Speed Precip Events Conditions
12:15 AM 55.4 °F 48.2 °F 77% 30.15 in 10.0 mi SE 10.4 mph - N/A   Overcast
12:35 AM 55.4 °F 48.2 °F 77% 30.15 in 10.0 mi SE 9.2 mph - N/A   Overcast
12:55 AM 55.4 °F 48.2 °F 77% 30.15 in 10.0 mi SE 9.2 mph - N/A   Overcast
1:15 AM 55.4 °F 48.2 °F 77% 30.14 in 10.0 mi SE 8.1 mph - N/A   Overcast
1:35 AM 55.4 °F 50.0 °F 82% 30.13 in 10.0 mi ESE 9.2 mph - N/A   Overcast
1:55 AM 53.6 °F 48.2 °F 82% 30.12 in 10.0 mi ESE 10.4 mph - N/A   Overcast
2:15 AM 51.8 °F 48.2 °F 88% 30.12 in 10.0 mi ESE 9.2 mph - N/A   Overcast
2:35 AM 51.8 °F 48.2 °F 88% 30.12 in 10.0 mi ESE 9.2 mph - N/A   Overcast
2:55 AM 51.8 °F 48.2 °F 88% 30.12 in 10.0 mi SE 10.4 mph - N/A   Overcast
3:15 AM 51.8 °F 48.2 °F 88% 30.11 in 10.0 mi ESE 10.4 mph - N/A   Mostly Cloudy
3:35 AM 51.8 °F 48.2 °F 88% 30.11 in 10.0 mi SE 9.2 mph - N/A   Overcast
3:55 AM 51.8 °F 48.2 °F 88% 30.11 in 10.0 mi ESE 8.1 mph - N/A   Overcast
4:15 AM 51.8 °F 48.2 °F 88% 30.10 in 10.0 mi ESE 12.7 mph - N/A   Overcast
4:35 AM 51.8 °F 48.2 °F 88% 30.09 in 10.0 mi ESE 12.7 mph - N/A   Overcast
4:55 AM 51.8 °F 48.2 °F 88% 30.08 in 10.0 mi ESE 12.7 mph - N/A   Overcast
5:15 AM 50.0 °F 48.2 °F 94% 30.07 in 10.0 mi ESE 11.5 mph - N/A   Overcast
5:35 AM 50.0 °F 48.2 °F 94% 30.08 in 10.0 mi ESE 11.5 mph - N/A   Overcast
5:55 AM 50.0 °F 48.2 °F 94% 30.08 in 10.0 mi ESE 10.4 mph - N/A   Scattered Clouds
6:15 AM 50.0 °F 48.2 °F 94% 30.07 in 9.0 mi ESE 9.2 mph - N/A   Clear
6:35 AM 48.2 °F 48.2 °F 100% 30.08 in 10.0 mi SE 9.2 mph - N/A   Clear
6:55 AM 50.0 °F 48.2 °F 94% 30.07 in 10.0 mi ESE 9.2 mph - N/A   Mostly Cloudy
7:47 AM 50.0 °F 48.2 °F 94% 30.07 in 10.0 mi ESE 12.7 mph - N/A   Overcast
8:47 AM 50.0 °F 46.4 °F 87% 30.06 in 10.0 mi ESE 13.8 mph 18.4 mph N/A   Overcast
9:58 AM 53.6 °F 44.6 °F 72% 30.10 in 10.0 mi South 5.8 mph - N/A   Overcast
10:37 AM 53.6 °F 46.4 °F 77% 30.12 in 2.0 mi WSW 5.8 mph - N/A Rain Light Rain
10:45 AM 51.8 °F 48.2 °F 88% 30.08 in 1.8 mi SE 6.9 mph - N/A Rain Light Rain
11:00 AM 51.8 °F 48.2 °F 88% 30.06 in 5.0 mi SE 10.4 mph - N/A Rain Light Rain
11:45 AM 50.0 °F 48.2 °F 94% 30.00 in 7.0 mi SE 20.7 mph 28.8 mph N/A Rain Light Rain
12:45 PM 53.6 °F 50.0 °F 88% 29.98 in 10.0 mi SSE 9.2 mph 17.3 mph N/A   Overcast
1:47 PM 59.0 °F 51.8 °F 77% 29.98 in 10.0 mi South 5.8 mph - N/A   Mostly Cloudy
2:48 PM 62.6 °F 51.8 °F 68% 29.96 in 10.0 mi SSE 5.8 mph - N/A   Mostly Cloudy
3:45 PM 66.2 °F 50.0 °F 56% 29.93 in 10.0 mi West 6.9 mph - N/A   Scattered Clouds
4:45 PM 68.0 °F 48.2 °F 49% 29.90 in 10.0 mi West 4.6 mph - N/A   Mostly Cloudy
5:50 PM 69.8 °F 50.0 °F 49% 29.89 in 10.0 mi West 6.9 mph - N/A   Mostly Cloudy
6:48 PM 66.2 °F 50.0 °F 56% 29.90 in 10.0 mi WSW 6.9 mph - N/A   Mostly Cloudy
7:35 PM 64.4 °F 50.0 °F 59% 29.90 in 10.0 mi WSW 9.2 mph - N/A Thunderstorm Thunderstorm
7:55 PM 64.4 °F 50.0 °F 59% 29.89 in 10.0 mi SW 5.8 mph - N/A Thunderstorm Thunderstorm
9:15 PM 53.6 °F 51.8 °F 94% 29.92 in 1.8 mi ESE 6.9 mph - 0.16 in Rain , Thunderstorm Thunderstorms and Rain
9:35 PM 53.6 °F 50.0 °F 88% 29.93 in 10.0 mi South 5.8 mph - 0.16 in   Mostly Cloudy
9:55 PM 53.6 °F 50.0 °F 88% 29.92 in 10.0 mi South 6.9 mph - 0.16 in Thunderstorm Overcast
10:15 PM 53.6 °F 50.0 °F 88% 29.93 in 10.0 mi Calm Calm - N/A   Overcast
10:35 PM 53.6 °F 50.0 °F 88% 29.93 in 10.0 mi South 5.8 mph - N/A   Mostly Cloudy
10:55 PM 53.6 °F 50.0 °F 88% 29.94 in 10.0 mi Calm Calm - N/A   Overcast
11:15 PM 53.6 °F 50.0 °F 88% 29.94 in 10.0 mi NNE 4.6 mph - N/A   Overcast
11:35 PM 51.8 °F 50.0 °F 94% 29.94 in 10.0 mi South 3.5 mph - N/A   Mostly Cloudy
11:55 PM 51.8 °F 51.8 °F 100% 29.95 in 10.0 mi SSE 3.5 mph - N/A   Mostly Cloudy